Regional Weather Roundup
Issued by NWS

Home | Current Version | Previous Version | Text Only | Print | Product List | Glossary On
Versions: 1 2 3 4 5 6 7 8 9 10 11 12 13 14 15 16 17 18 19 20 21 22 23 24 25 26 27 28 29 30 31 32 33 34 35 36 37 38 39 40 41 42 43 44 45 46 47 48 49 50
000
ASUS43 KMPX 281410
RWRMN
WEATHER ROUNDUP FOR MINNESOTA
NATIONAL WEATHER SERVICE TWIN CITIES/CHANHASSEN MN
800 AM CST SUN DEC 28 2014


NOTE: "FAIR" INDICATES FEW OR NO CLOUDS BELOW 12,000 FEET WITH NO
SIGNIFICANT WEATHER AND/OR OBSTRUCTIONS TO VISIBILITY. N/A MEANS
CURRENT SKY AND/OR WEATHER CONDITIONS ARE NOT AVAILABLE.

MNZ060>063-068>070-281500-
   Twin Cities Metro

CITY           SKY/WX    TMP DP  RH WIND       PRES   REMARKS
TWIN CITIES    PTCLDY     9   6  88 CALM      30.12R
ST PAUL        FAIR       9   6  88 CALM      30.14R
CRYSTAL        MOCLDY     6   3  87 CALM      30.11R
BLAINE         MOCLDY    10  10 100 CALM      30.10R
LAKEVILLE      CLEAR      7   3  85 CALM      30.11R
EDEN PRAIRIE   CLEAR      7   3  84 CALM      30.10S
SOUTH ST PAUL  CLEAR     10   7  88 CALM      30.12S
LAKE ELMO      MOCLDY     5   3  92 CALM      30.12R FOG
$$
MNZ001>005-007-008-013>017-022>024-027-028-281500-
   Northwest Minnesota

CITY           SKY/WX    TMP DP  RH WIND       PRES   REMARKS
BEMIDJI        MOCLDY    -6 -10  86 NW3       30.15R
HALLOCK        CLEAR    -11 -18  70 N6        30.28R WCI -25
ROSEAU         CLEAR     -9 -15  77 NW6       30.23R WCI -23
WARROAD        CLEAR    -11 -17  77 NW7       30.22R WCI -26
THIEF RVR FALL PTCLDY    -8  -9  92 N7        30.22R WCI -22
CROOKSTON      CLEAR     -9 -15  77 N9        30.28R WCI -27
FOSSTON        CLEAR     -9 -13  84 N5        30.19R WCI -21
DETROIT LAKES  PTCLDY     3   0  85 N8        30.16R WCI -10
MOORHEAD       PTCLDY     1  -6  71 N14       30.23R WCI -17
PARK RAPIDS    MOCLDY     5   1  83 N10       30.13R WCI -10
MAHNOMEN       FAIR      -4  -8  83 NE6       30.19R WCI -16
$$
MNZ006-009>011-018-025>026-281500-
   North Central Minnesota

CITY           SKY/WX    TMP DP  RH WIND       PRES   REMARKS
BAUDETTE       CLEAR     -7 -12  79 NW9       30.18R WCI -24
FLAG ISLAND    CLEAR    -13 -18  77 NW13      30.20R WCI -34
INTL FALLS     CLEAR     -6 -11  79 W6        30.15R WCI -19
WASKISH        CLOUDY    -2  -6  84 CALM      30.18R
BIG FORK       CLOUDY    -2  -6  84 N8        30.15R WCI -17
LONGVILLE      FLURRIES   7   3  85 NW7       30.13R WCI  -5
GRAND RAPIDS   MOCLDY     1  -4  78 N15       30.10R WCI -18
CRANE LAKE     CLEAR     -4  -8  84 NW5       30.16R WCI -15
ORR            CLOUDY    -4  -9  77 NW6       30.10R WCI -16
COOK           CLOUDY    -2  -8  78 NW6       30.13R WCI -14
WALKER         PTSUNNY    1  -3  83 NW3       30.15R
$$
MNZ012-019>021-037-281500-
   Northeast Minnesota

CITY           SKY/WX    TMP DP  RH WIND       PRES   REMARKS
DULUTH         FLURRIES  11   5  77 NW14G20   30.05R WCI  -5
ELY            MOCLDY     0  -6  78 NW7       30.08R WCI -13
HIBBING        CLEAR      1  -6  72 N16       30.11R WCI -19
EVELETH        PTCLDY     3  -4  72 NW10      30.10R WCI -12
DULUTH HARBOR  MOCLDY    18   9  68 CALM      30.12R
TWO HARBORS    CLEAR     12   3  67 NW7       30.05R WCI   2
SILVER BAY     CLEAR      9   1  72 W8        30.05R WCI  -4
GRAND MARAIS     N/A      8   0  69 VRB6      30.09R WCI  -2
G MARAIS ARPRT PTCLDY     0  -8  71 NW9G21    29.96R WCI -16
$$
MNZ029>031-032-039>041-046>048-054>057-064-281500-
   West Central Minnesota

CITY           SKY/WX    TMP DP  RH WIND       PRES   REMARKS
FERGUS FALLS   CLOUDY    10   5  79 N9G16     30.18R WCI  -2
WHEATON        FLURRIES  12   9  85 N14       30.18R WCI  -3
MORRIS         CLOUDY    18  16  93 N14       30.10S WCI   4
ALEXANDRIA     CLOUDY    19  15  84 N12       30.09R WCI   7
ELBOW LAKE     CLOUDY    17  14  86 N13       30.11R WCI   4
WADENA         CLOUDY    12   9  85 N8        30.11R WCI   1
GLENWOOD       MOCLDY    18  16  93 NW5       30.09R WCI  11
APPLETON       CLOUDY    16  12  86 N6        30.12R WCI   7
BENSON         CLOUDY    12  10  92 CALM      30.11R
ORTONVILLE     CLOUDY    18  16  93 N13       30.12R FOG     WCI   4
MADISON        CLOUDY    19  18  93 NW3       30.13R
WILLMAR        CLOUDY    16  10  79 CALM      30.11R
$$
MNZ033>034-036-042>043-049>051-058-059-281500-
   Central Minnesota

CITY           SKY/WX    TMP DP  RH WIND       PRES   REMARKS
ST CLOUD       CLOUDY    16  11  80 CALM      30.09R
SAUK CENTRE    CLOUDY    15  13  92 CALM      30.09R
PAYNESVILLE    PTCLDY    11  10  97 SW3       30.09S
AITKIN         CLEAR     16   9  73 NW6       30.09R WCI   7
PINE RIVER     PTCLDY    10   7  85 N8        30.14R WCI  -1
BRAINERD       CLOUDY    15   8  73 N8        30.11R WCI   4
STAPLES        CLOUDY    14   9  79 N10       30.11R WCI   1
LONG PRAIRIE   CLOUDY    19  18  93 NW6       30.09R WCI  11
LITTLE FALLS   MOCLDY    19  18  93 CALM      30.10R
LITCHFIELD     CLOUDY    18  16  93 N3        30.10S
BUFFALO        CLOUDY     7   4  88 CALM      30.12S
MAPLE LAKE     CLOUDY    11  10  92 CALM      30.10S
$$
MNZ037-044-045-052-053-281500-
   East Central Minnesota

CITY           SKY/WX    TMP DP  RH WIND       PRES   REMARKS
PRINCETON      CLOUDY    16  12  86 CALM      30.09S
MORA           CLOUDY    18  14  86 W3        30.10R
CAMBRIDGE      FLURRIES  18  10  73 CALM      30.08S
RUSH CITY      CLOUDY    16  13  89 CALM      30.10R
MOOSE LAKE     PTCLDY    16  10  79 CALM      30.08R
HINCKLEY       FLURRIES  19  18  93 CALM      30.10R
CLOQUET        CLEAR     12   7  79 NW5       30.07R WCI   4
MCGREGOR       CLEAR     14   9  79 NW8       30.10R WCI   3
$$
MNZ071>073-080-081-089-090-097-098-281500-
   Southwest Minnesota

CITY           SKY/WX    TMP DP  RH WIND       PRES   REMARKS
MONTEVIDEO     CLOUDY    14  12  92 N5        30.12S WCI   6
GRANITE FALLS  MOCLDY    10   8  91 W5        30.13R WCI   2
CANBY          PTCLDY    12  10  92 NW7       30.12S WCI   1
MARSHALL       CLEAR      9   5  85 W7        30.10R WCI  -3
REDWOOD FALLS  CLEAR      9   6  88 NW7       30.11R WCI  -2
OLIVIA         PTCLDY     9   7  92 NW3       30.11R
PIPESTONE      PTCLDY    -2  -6  84 CALM      30.07R FOG
WINDOM         CLEAR      3   1  92 CALM      30.09R
WORTHINGTON    CLEAR      7 N/A N/A W5        30.08R WCI  -2
JACKSON        CLEAR      9   5  85 W5        30.08S WCI   0
TRACY          CLEAR     14  11  90 W7        30.10R WCI   4
SLAYTON        PTCLDY     5   2  89 NW7       30.08S WCI  -7
$$
MNZ065>067-074>077-082>085-091>093-281500-
   South Central Minnesota

CITY           SKY/WX    TMP DP  RH WIND       PRES   REMARKS
MANKATO        CLEAR      9   1  72 CALM      30.10S
NEW ULM        CLEAR      3   1  92 W3        30.11R
ST JAMES       CLEAR      9   5  85 W5        30.11S WCI   0
FAIRMONT       CLEAR      9   3  78 W3        30.09S
GLENCOE        PTCLDY    -1  -4  88 CALM      30.11R FOG
FARIBAULT      CLEAR      3   1  92 CALM      30.11R FOG
OWATONNA       CLEAR      9   3  78 S5        30.10S WCI   0
WASECA         CLEAR      5   3  92 CALM      30.12R FOG
ALBERT LEA     CLEAR      9   7  92 CALM      30.10R
$$
MNZ078>079-086>088-094>096-281500-
   Southeast Minnesota

CITY           SKY/WX    TMP DP  RH WIND       PRES   REMARKS
ROCHESTER      PTCLDY     6   3  87 SW8       30.09R WCI  -7
RED WING       CLEAR      3   0  85 CALM      30.12R
STANTON        CLEAR      4   0  82 CALM      30.10S HAZE
DODGE CENTER   PTCLDY     7   5  92 SW7       30.08R WCI  -5
WINONA         CLEAR      9   5  85 NW3       30.16R
AUSTIN         CLEAR      3   1  92 CALM      30.10R
PRESTON        CLEAR      7   4  89 SW8       30.11R WCI  -6
$$
ABBREVIATIONS USED IN REMARKS
   TC - TEMPERATURES IN CELSIUS
  WCI - WIND CHILL INDEX
   HX - HEAT INDEX
  VSB - VISIBILITY
$$


USA.gov is the U.S. government's official web portal to all federal, state and local government web resources and services.